Tracking 17925 objects as of 21-January-2017
HD Live streaming from Space Station
objects crossing your sky now

IRIDIUM 76

Track IRIDIUM 76 now!
10-day predictions
IRIDIUM 76 is classified as:


NORAD ID: 25432
Int'l Code: 1998-048B
Perigee: 783.3 km
Apogee: 786.3 km
Inclination: 86.4 °
Period: 100.4 minutes
Semi major axis: 7155 km
RCS: 4.1166 m2 (large)
Launch date: August 19, 1998
Source: United States (US)
Launch site: Taiyaun Space Center, China (TSC)

Spare; stored in 667 km storage orbit, not raised to 780 km operational orbit until needed
Your satellite tracking list
Your tracking list is empty





NASA's NSSDC Master Catalog

Two Line Element Set (TLE):
1 25432U 98048B   17021.43691376  .00000174  00000-0  54992-4 0  9990
2 25432  86.3981 316.8191 0002055  88.6026  43.0809 14.34215375964563
Source of the keplerian elements: AFSPC